Αρχική σελίδα
METAR-TAF:

METAR-TAF

Αεροδρόμια :

Denison Municipal Airport

Denison, Αϊόβα, Ηνωμένες Πολιτείες Αμερικής

γεωγραφικό πλάτος: 41-59N, γεωγραφικό μήκος: 095-23W, υψόμετρο: 388 μ

Παρών καιρός

Η αναφορά έγινε 7 λεπτά πριν, στις 18:55 UTC
Άνεμος 9 kt από ΝΔ
Θερμοκρασία 0°C
Υγρασία 40%
Πίεση 1024 hPa
Ορατότητα: 16.1 χλμ
Καθαρός ουρανός

METAR: KDNS 181855Z AUTO 23009KT 10SM CLR 00/M12 A3023 RMK AO2

Χρόνος: 13:02 (19:02 UTC)


TAF: λείπει

Μετεωρολογικές αναφορές και προγνώσεις για περισσότερα από 4000 αεροδρόμια (δελτία METAR και TAF).

Οι διαθέσιμοι σταθμοί απεικονίζονται στο χάρτη με κίτρινες και κόκκινες κουκκίδες.

Μετακινήστε το ποντίκι πάνω από τις κουκκίδες για να δείτε το όνομα του σταθμού.

Στη συνέχεια, κάντε κλικ για να δείτε τις μετεωρολογικές αναφορές και τις προγνώσεις καιρού.

Για να αλλάξετε το χάρτη: κάντε κλικ στα πράσινα κουμπιά με τον μαύρο σταυρό για να ζουμάρετε, στο πράσινο κουμπί με την παύλα για να αφαιρέσετε το ζουμ ή στα πράσινα βέλη για να αντιπαραβάλλετε χάρτες.


METAR-TAF: